[[{"header":{"parameterUnit":"m.s-1","parameterCategory":2,"la1":30.2991,"la2":30.254,"lo1":-89.0895,"lo2":-89.0444,"dy":0.0017,"dx":0.0017,"nx":28,"ny":28,"refTime":"2024-12-10T09:00:00:Z","depth":"0","parameterNumber":2,"parameterNumberName":"U-component_of_CURRENTS"},"data":[0,0,0,0,0,0,0,0,0,0,0,0,0,0,0,0,0,0,0,0,0,0,0,0,0,0,0,0,0,0,0,0,0,0,0,0,0,0,0,0,0,0,0,0,0,0,0,0,0,0,0,0,0,0,0,0,0,0,-0.1984,-0.1984,0,-0.2016,-0.2016,-0.2017,-0.1994,-0.1993,-0.1992,-0.1991,-0.2008,-0.201,-0.2011,0,0,0,0,0,0,0,0,0,0,0,0,0,-0.1928,-0.1929,-0.1984,-0.1984,-0.1985,-0.2016,-0.2016,-0.2017,-0.1994,-0.1993,-0.1991,-0.199,-0.2008,-0.2009,-0.2011,0,0,0,0,0,0,0,0,0,0,0,0,0,-0.1954,-0.1929,-0.1984,-0.1977,-0.1977,-0.2016,-0.2016,-0.2017,-0.1994,-0.1993,-0.1991,-0.199,-0.2007,-0.2009,-0.2011,-0.2053,0,0,-0.2017,-0.2018,0,0,0,0,0,0,0,0,-0.1953,-0.1956,-0.1978,-0.1978,-0.1978,-0.2,-0.2003,-0.2028,-0.1994,-0.1987,-0.1991,-0.1989,-0.2006,-0.2008,-0.2016,-0.2053,-0.2054,-0.2018,-0.2019,-0.202,-0.202,0,0,0,0,0,0,0,-0.1951,-0.1955,-0.1996,-0.1979,-0.1979,-0.1982,-0.1984,-0.2008,-0.2003,-0.1987,-0.1986,-0.1991,-0.2005,-0.2014,-0.2016,-0.2054,-0.2018,-0.2019,-0.2021,-0.2021,-0.2119,-0.212,0,0,0,0,0,0,-0.1949,-0.1953,-0.1995,-0.1997,-0.1963,-0.1984,-0.1986,-0.1994,-0.2003,-0.2003,-0.1993,-0.199,-0.2011,-0.2014,-0.2017,-0.2051,-0.202,-0.2022,-0.2023,-0.2118,-0.2119,-0.2121,0,0,0,0,0,0,-0.1948,-0.1953,-0.1993,-0.1976,-0.1982,-0.1987,-0.1995,-0.1995,-0.1998,-0.2007,-0.2007,-0.1995,-0.201,-0.2014,-0.2037,-0.2051,-0.2023,-0.2024,-0.2116,-0.2118,-0.212,-0.2128,0,0,0,0,0,0,-0.1946,-0.1952,-0.1956,-0.1976,-0.1983,-0.2019,-0.1997,-0.1997,-0.2005,-0.2002,-0.201,-0.201,-0.201,-0.2034,-0.2039,-0.2054,-0.2026,-0.2114,-0.2117,-0.2119,-0.2126,-0.213,-0.2134,0,0,0,0,0,-0.1944,-0.1957,-0.1957,-0.1961,-0.1988,-0.202,-0.2024,-0.2022,-0.2006,-0.2017,-0.2018,-0.2009,-0.2054,-0.2037,-0.2042,-0.2058,-0.2113,-0.2116,-0.2119,-0.2124,-0.2129,-0.2133,0,0,0,0,0,0,-0.1936,-0.1957,-0.1956,-0.1974,-0.1997,-0.2016,-0.2025,-0.2026,-0.2036,-0.2028,-0.2028,-0.203,-0.2057,-0.2063,-0.2044,-0.2096,-0.2083,-0.2087,-0.2085,-0.2089,-0.2093,-0.2099,-0.2028,0,0,0,0,0,-0.1938,-0.1947,-0.1974,-0.1987,-0.1999,-0.2012,-0.2023,-0.2026,-0.2039,-0.2042,-0.2048,-0.2059,-0.2078,-0.2085,-0.2106,-0.2135,-0.2138,-0.2151,-0.2154,-0.2157,-0.2168,-0.2183,-0.2189,-0.2131,-0.2131,-0.2131,0,0,-0.1937,-0.1949,-0.1954,-0.1985,-0.1998,-0.2025,-0.2015,-0.2036,-0.2054,-0.2044,-0.2066,-0.2075,-0.2091,-0.212,-0.2133,-0.2122,-0.2175,-0.2161,-0.2163,-0.2173,-0.2187,-0.2192,-0.2197,-0.2133,-0.2132,-0.2132,0,0,-0.1943,-0.1953,-0.1965,-0.1989,-0.2015,-0.2031,-0.2038,-0.2064,-0.207,-0.2099,-0.2095,-0.2116,-0.2142,-0.2158,-0.2168,-0.2211,-0.2197,-0.2214,-0.2233,-0.2247,-0.2251,-0.2255,-0.2257,-0.2261,-0.2211,-0.2211,-0.2211,0,-0.1941,-0.1959,-0.1975,-0.2,-0.2017,-0.2034,-0.2059,-0.208,-0.2108,-0.212,-0.2106,-0.2154,-0.2164,-0.2203,-0.2213,-0.222,-0.2216,-0.2208,-0.225,-0.2254,-0.2258,-0.2259,-0.2263,-0.2212,-0.2212,-0.2212,-0.2212,0,-0.1959,-0.1977,-0.1988,-0.2021,-0.2047,-0.207,-0.2105,-0.2129,-0.2134,-0.2151,-0.2188,-0.2204,-0.2229,-0.2237,-0.2236,-0.2274,-0.2259,-0.2252,-0.2232,-0.2264,-0.2263,-0.2267,-0.2213,-0.2213,-0.2213,-0.2212,0,0,-0.1939,-0.1989,-0.1992,-0.2008,-0.2057,-0.2079,-0.2121,-0.2163,-0.2185,-0.2211,-0.2237,-0.2274,-0.2275,-0.2289,-0.2292,-0.2306,-0.2326,-0.2287,-0.2288,-0.2278,-0.2344,-0.2272,-0.2269,-0.2316,-0.2318,-0.2318,-0.2328,0,-0.1943,-0.198,-0.201,-0.2048,-0.2069,-0.2109,-0.2146,-0.2188,-0.2216,-0.225,-0.2273,-0.2301,-0.2296,-0.2302,-0.2319,-0.2329,-0.234,-0.2324,-0.2325,-0.2326,-0.2248,-0.2273,-0.2162,-0.2156,-0.2332,-0.2333,-0.2334,0,-0.1943,-0.1968,-0.2001,-0.2054,-0.2069,-0.2097,-0.2153,-0.2191,-0.2251,-0.2272,-0.2307,-0.2325,-0.2362,-0.2345,-0.2378,-0.2362,-0.2358,-0.236,-0.236,-0.2296,-0.2262,-0.2157,-0.2158,-0.2117,-0.234,-0.234,-0.2339,0,-0.19,-0.1959,-0.1978,-0.1997,-0.2066,-0.2087,-0.2123,-0.2188,-0.2221,-0.2283,-0.2308,-0.2353,-0.237,-0.2384,-0.2392,-0.2382,-0.2417,-0.2402,-0.2337,-0.2331,-0.2241,-0.2225,-0.2193,-0.2426,-0.2426,-0.2426,-0.2426,0,-0.1882,-0.1896,-0.1957,-0.1966,-0.1993,-0.2055,-0.2092,-0.2139,-0.2209,-0.2248,-0.2307,-0.2343,-0.238,-0.2405,-0.2404,-0.2381,-0.2426,-0.2347,-0.2332,-0.2239,-0.2224,-0.2187,-0.2204,-0.2426,-0.2426,-0.2426,-0.2426,0,-0.1822,-0.1864,-0.1886,-0.195,-0.1968,-0.1983,-0.2059,-0.2089,-0.2167,-0.2221,-0.224,-0.2333,-0.2366,-0.2395,-0.2421,-0.2385,-0.2329,-0.2361,-0.2242,-0.2213,-0.2086,-0.2108,-0.21,-0.2031,-0.2279,-0.2278,-0.2276,0,-0.1793,-0.1797,-0.1849,-0.1856,-0.1879,-0.1919,-0.1945,-0.2041,-0.2081,-0.2211,-0.2229,-0.2301,-0.2333,-0.2348,-0.2313,-0.229,-0.228,-0.2159,-0.2121,-0.2067,-0.2083,-0.2106,-0.2051,-0.2006,-0.2003,-0.2,-0.1997,0,-0.173,-0.1745,-0.1764,-0.1776,-0.1797,-0.1822,-0.1874,-0.1905,-0.2023,-0.2083,-0.2165,-0.2209,-0.225,-0.2193,-0.2166,-0.2129,-0.2081,-0.2097,-0.2077,-0.1898,-0.1889,-0.1817,-0.2013,-0.1972,-0.1974,-0.1976,-0.1978,-0.1979,-0.1673,-0.167,-0.1689,-0.1692,-0.171,-0.171,-0.1698,-0.1781,-0.1831,-0.1916,-0.2035,-0.2087,-0.2091,-0.204,-0.1982,-0.1832,-0.1915,-0.1762,-0.1804,-0.1841,-0.1742,-0.1874,-0.1792,-0.1794,-0.1795,-0.1796,-0.1797,0,-0.1596,-0.1604,-0.1604,-0.16,-0.1569,-0.1607,-0.1635,-0.1618,-0.1643,-0.1772,-0.1839,-0.1911,-0.1829,-0.181,-0.1689,-0.1577,-0.1519,-0.1523,-0.1532,-0.1494,-0.1627,-0.1578,-0.1401,-0.1401,-0.1401,-0.1401,-0.1401,-0.1401,-0.1559,-0.1534,-0.1534,-0.1457,-0.1443,-0.1367,-0.1352,-0.1359,-0.1419,-0.1496,-0.1595,-0.1724,-0.1774,-0.1777,-0.1579,-0.1457,-0.1396,-0.135,-0.138,-0.1474,-0.1499,-0.1524,-0.1479,-0.1285,-0.1285,-0.1166,-0.1165,-0.1165]},{"header":{"parameterUnit":"m.s-1","parameterCategory":2,"la1":30.2991,"la2":30.254,"lo1":-89.0895,"lo2":-89.0444,"dy":0.0017,"dx":0.0017,"nx":28,"ny":28,"refTime":"2024-12-10T09:00:00:Z","depth":"0","parameterNumber":3,"parameterNumberName":"V-component_of_CURRENTS"},"data":[0,0,0,0,0,0,0,0,0,0,0,0,0,0,0,0,0,0,0,0,0,0,0,0,0,0,0,0,0,0,0,0,0,0,0,0,0,0,0,0,0,0,0,0,0,0,0,0,0,0,0,0,0,0,0,0,0,0,-0.0077,-0.0076,0,-0.0025,-0.0024,-0.0024,0.0017,0.0018,0.0018,0.0019,0.0065,0.0066,0.0067,0,0,0,0,0,0,0,0,0,0,0,0,0,-0.0144,-0.0143,-0.0077,-0.0076,-0.0075,-0.0025,-0.0024,-0.0024,0.0017,0.0018,0.0019,0.0019,0.0065,0.0066,0.0067,0,0,0,0,0,0,0,0,0,0,0,0,0,-0.0106,-0.0143,-0.0077,-0.0048,-0.0045,-0.0025,-0.0024,-0.0024,0.0017,0.0018,0.0019,0.0019,0.0065,0.0066,0.0067,0.006,0,0,0.0071,0.0071,0,0,0,0,0,0,0,0,-0.0108,-0.0104,-0.0053,-0.005,-0.0047,-0.0009,-0.0031,0.0004,0.0017,-0.0007,0.0019,0.002,0.004,0.0043,0.0051,0.0062,0.0064,0.0071,0.0072,0.0072,0.0072,0,0,0,0,0,0,0,-0.0111,-0.0106,-0.0057,-0.0053,-0.0049,-0.0039,-0.0033,-0.0024,0.0011,-0.0005,-0.0002,0.0005,0.0042,0.0049,0.0052,0.0065,0.0071,0.0072,0.0073,0.0073,0.0068,0.0068,0,0,0,0,0,0,-0.0117,-0.0108,-0.0059,-0.0055,-0.0076,-0.0039,-0.0032,-0.0022,0.0011,0.0017,0.0004,0.0007,0.0047,0.005,0.0054,0.0039,0.0072,0.0073,0.0074,0.0069,0.0068,0.0067,0,0,0,0,0,0,-0.0118,-0.0113,-0.0061,-0.008,-0.0073,-0.0038,-0.0028,-0.0022,-0.0013,0.0018,0.0024,0.0007,0.0048,0.0052,0.0055,0.0042,0.0074,0.0075,0.007,0.0069,0.0068,0.0016,0,0,0,0,0,0,-0.012,-0.0114,-0.0113,-0.0081,-0.0072,-0.0056,-0.0028,-0.0021,-0.0009,-0.0006,0.0023,0.0028,0.0048,0.0053,0.0056,0.0044,0.0076,0.0071,0.007,0.0068,0.0019,0.0013,0.0008,0,0,0,0,0,-0.0123,-0.0124,-0.0113,-0.0107,-0.007,-0.0057,-0.0052,-0.0025,-0.001,-0.0013,0.0005,0.0027,0.0046,0.0053,0.0057,0.0045,0.0072,0.007,0.0068,0.0021,0.0014,0.0008,0,0,0,0,0,0,-0.0154,-0.0119,-0.0106,-0.0097,-0.0082,-0.005,-0.0049,-0.0031,-0.0018,-0.0014,0.0016,0.0022,0.002,0.0037,0.0045,0.0038,0.0062,0.0061,0.0025,0.0019,0.0013,0.0008,0.0077,0,0,0,0,0,-0.0161,-0.0152,-0.0122,-0.0117,-0.011,-0.0081,-0.0073,-0.0056,-0.0037,-0.003,-0.001,0.0007,0.0015,0.002,0.0031,0.0026,0.0056,0.002,0.0015,0.001,0.0008,0.0041,0.0039,0.0061,0.0061,0.0061,0,0,-0.0172,-0.0152,-0.0147,-0.0124,-0.0108,-0.0112,-0.0075,-0.0066,-0.0072,-0.0029,-0.0032,-0.001,0.0009,0.0005,0.0005,0.0018,0.0019,0.0008,0.0004,0.0004,0.0039,0.0037,0.0035,0.006,0.006,0.006,0,0,-0.0196,-0.0173,-0.0177,-0.017,-0.015,-0.0134,-0.0135,-0.0107,-0.0098,-0.0097,-0.0069,-0.0056,-0.0043,-0.0031,-0.0024,-0.0053,-0.0009,-0.0051,-0.0081,-0.0049,-0.0051,-0.0051,-0.0015,-0.0012,-0.0053,-0.0054,-0.0054,0,-0.0213,-0.0211,-0.0179,-0.0187,-0.0189,-0.015,-0.0166,-0.0154,-0.013,-0.0126,-0.0106,-0.0079,-0.0061,-0.0064,-0.0074,-0.0064,-0.0036,-0.0058,-0.0055,-0.0055,-0.0055,-0.0018,-0.0014,-0.0056,-0.0056,-0.0056,-0.0055,0,-0.024,-0.0246,-0.025,-0.0247,-0.0246,-0.0253,-0.0233,-0.0229,-0.0209,-0.019,-0.018,-0.0147,-0.0129,-0.0123,-0.0107,-0.0104,-0.008,-0.0064,-0.0038,-0.006,-0.002,-0.0015,-0.006,-0.0059,-0.0058,-0.0058,0,0,-0.0265,-0.0269,-0.0272,-0.029,-0.028,-0.0285,-0.0295,-0.0291,-0.0297,-0.0263,-0.0263,-0.024,-0.0205,-0.0195,-0.0166,-0.0138,-0.0111,-0.0105,-0.0102,-0.0066,-0.0034,-0.0001,0.0008,-0.0092,-0.0091,-0.0091,-0.0006,0,-0.0301,-0.0334,-0.0324,-0.0367,-0.0386,-0.0365,-0.0381,-0.0372,-0.0349,-0.0339,-0.0291,-0.0279,-0.0239,-0.0227,-0.0194,-0.0132,-0.0101,-0.0135,-0.002,-0.0017,0.0018,0.0014,0.0032,0.011,-0.0001,-0.0,0.0001,0,-0.0333,-0.0354,-0.0398,-0.0433,-0.044,-0.0457,-0.0471,-0.0478,-0.0449,-0.0429,-0.0393,-0.0349,-0.0306,-0.0266,-0.0164,-0.0186,-0.0119,-0.0064,-0.0059,-0.0006,0.0026,0.0114,0.0124,0.0284,0.0009,0.0008,0.0008,0,-0.0369,-0.0409,-0.0448,-0.046,-0.0487,-0.0504,-0.0514,-0.0502,-0.0514,-0.0477,-0.0471,-0.0404,-0.0369,-0.0277,-0.0161,-0.0161,-0.0039,-0.0024,0.0071,0.0075,0.0123,0.013,0.0303,0.0046,0.0046,0.0046,0.0046,0,-0.041,-0.0445,-0.0469,-0.0494,-0.0552,-0.0546,-0.0588,-0.0585,-0.0575,-0.0593,-0.0517,-0.0505,-0.0368,-0.0281,-0.0175,-0.0032,-0.0046,0.0069,0.0098,0.0105,0.0109,0.0277,0.035,0.0049,0.0049,0.0048,0.0047,0,-0.0441,-0.0455,-0.051,-0.0551,-0.057,-0.0606,-0.0647,-0.0675,-0.065,-0.0668,-0.0659,-0.0574,-0.0456,-0.0314,-0.0155,-0.005,0.0182,0.0133,0.0134,0.0163,0.0396,0.0464,0.0666,0.0751,0.0253,0.0254,0.0255,0,-0.0458,-0.0485,-0.0554,-0.06,-0.0622,-0.0672,-0.0714,-0.0714,-0.0737,-0.0713,-0.0725,-0.0618,-0.055,-0.0292,-0.0083,0.0121,0.0244,0.0263,0.0264,0.042,0.0517,0.0571,0.063,0.0311,0.0312,0.0313,0.0314,0,-0.0494,-0.0513,-0.0561,-0.0657,-0.0716,-0.0781,-0.0829,-0.0859,-0.0856,-0.0862,-0.0838,-0.0778,-0.0521,-0.0278,0.0006,0.0136,0.0393,0.0294,0.0459,0.0582,0.0649,0.074,0.0249,0.0325,0.0324,0.0323,0.0323,0.0322,-0.0517,-0.0564,-0.063,-0.072,-0.0798,-0.0877,-0.0925,-0.0968,-0.1008,-0.1018,-0.0933,-0.0838,-0.0438,-0.0035,0.0133,0.0514,0.0498,0.0627,0.0697,0.0739,0.0822,0.0356,0.0461,0.0461,0.046,0.046,0.046,0,-0.0545,-0.0605,-0.0696,-0.0805,-0.0897,-0.092,-0.1001,-0.1038,-0.1092,-0.108,-0.1044,-0.0676,-0.0266,0.013,0.067,0.09,0.0958,0.1021,0.1109,0.1151,0.0745,0.0749,0.0917,0.0917,0.0917,0.0916,0.0916,0.0916,-0.0567,-0.0646,-0.0699,-0.0862,-0.0942,-0.1049,-0.109,-0.1145,-0.1145,-0.1084,-0.0938,-0.0821,-0.0212,0.0719,0.1253,0.131,0.1512,0.1509,0.1618,0.1346,0.1315,0.1285,0.1308,0.159,0.1591,0.1997,0.2001,0.2004]}],[{"header":{"parameterUnit":"m.s-1","parameterCategory":2,"la1":30.2991,"la2":30.254,"lo1":-89.0895,"lo2":-89.0444,"dy":0.0017,"dx":0.0017,"nx":28,"ny":28,"refTime":"2024-12-10T09:00:00:Z","depth":"2","parameterNumber":2,"parameterNumberName":"U-component_of_CURRENTS"},"data":[0,0,0,0,0,0,0,0,0,0,0,0,0,0,0,0,0,0,0,0,0,0,0,0,0,0,0,0,0,0,0,0,0,0,0,0,0,0,0,0,0,0,0,0,0,0,0,0,0,0,0,0,0,0,0,0,0,0,-0.1952,-0.1952,0,-0.1987,-0.1987,-0.1988,-0.197,-0.1969,-0.1969,-0.1968,-0.1997,-0.1998,-0.2,0,0,0,0,0,0,0,0,0,0,0,0,0,-0.1896,-0.1897,-0.1952,-0.1952,-0.1953,-0.1987,-0.1987,-0.1988,-0.197,-0.1969,-0.1968,-0.1967,-0.1996,-0.1998,-0.2,0,0,0,0,0,0,0,0,0,0,0,0,0,-0.1924,-0.1897,-0.1952,-0.1949,-0.1949,-0.1987,-0.1987,-0.1988,-0.1971,-0.1969,-0.1968,-0.1967,-0.1995,-0.1998,-0.2,-0.204,0,0,-0.2007,-0.2008,0,0,0,0,0,0,0,0,-0.1922,-0.1926,-0.1949,-0.1949,-0.1949,-0.1974,-0.1978,-0.2005,-0.1971,-0.1962,-0.1968,-0.1966,-0.199,-0.1992,-0.2001,-0.2041,-0.2042,-0.2007,-0.2009,-0.201,-0.201,0,0,0,0,0,0,0,-0.192,-0.1924,-0.1965,-0.1949,-0.195,-0.1955,-0.1957,-0.1983,-0.1982,-0.1962,-0.1961,-0.1967,-0.1989,-0.1999,-0.2001,-0.2043,-0.2007,-0.2009,-0.2011,-0.2012,-0.2117,-0.2119,0,0,0,0,0,0,-0.1918,-0.1923,-0.1964,-0.1966,-0.1933,-0.1957,-0.1959,-0.1966,-0.1982,-0.1983,-0.1968,-0.1966,-0.1995,-0.1999,-0.2002,-0.2041,-0.201,-0.2012,-0.2013,-0.2116,-0.2118,-0.2119,0,0,0,0,0,0,-0.1917,-0.1921,-0.1962,-0.1945,-0.1951,-0.1959,-0.1967,-0.1968,-0.1974,-0.1986,-0.1987,-0.1973,-0.1994,-0.1999,-0.2027,-0.2042,-0.2013,-0.2015,-0.2114,-0.2116,-0.2118,-0.2125,0,0,0,0,0,0,-0.1915,-0.1921,-0.1925,-0.1945,-0.1952,-0.1989,-0.1969,-0.1969,-0.198,-0.1977,-0.1991,-0.1992,-0.1994,-0.2023,-0.2029,-0.2045,-0.2017,-0.2112,-0.2115,-0.2118,-0.2123,-0.2127,-0.213,0,0,0,0,0,-0.1913,-0.1925,-0.1926,-0.1931,-0.1958,-0.199,-0.1994,-0.1994,-0.1981,-0.1993,-0.1998,-0.1991,-0.2044,-0.2026,-0.2033,-0.205,-0.2111,-0.2114,-0.2117,-0.2121,-0.2126,-0.213,0,0,0,0,0,0,-0.1905,-0.1925,-0.1926,-0.1944,-0.1967,-0.1987,-0.1996,-0.1999,-0.2013,-0.2007,-0.201,-0.2014,-0.2045,-0.2053,-0.2033,-0.209,-0.2077,-0.2082,-0.2078,-0.2083,-0.2086,-0.2091,-0.2019,0,0,0,0,0,-0.1907,-0.1916,-0.1943,-0.1956,-0.1968,-0.1983,-0.1994,-0.1999,-0.2015,-0.2019,-0.2029,-0.2044,-0.2067,-0.2076,-0.21,-0.2132,-0.2134,-0.2149,-0.2153,-0.2155,-0.2166,-0.2181,-0.2187,-0.2129,-0.2129,-0.2129,0,0,-0.1906,-0.1918,-0.1923,-0.1954,-0.1968,-0.1995,-0.1986,-0.2009,-0.2029,-0.2023,-0.2049,-0.2061,-0.2081,-0.2113,-0.2128,-0.2117,-0.2172,-0.216,-0.2162,-0.217,-0.2185,-0.2191,-0.2195,-0.2132,-0.2131,-0.2131,0,0,-0.1912,-0.1923,-0.1935,-0.1959,-0.1986,-0.2002,-0.201,-0.2038,-0.2046,-0.2078,-0.2078,-0.2103,-0.2134,-0.2152,-0.2164,-0.2209,-0.2195,-0.2213,-0.223,-0.2245,-0.225,-0.2254,-0.2252,-0.2256,-0.221,-0.221,-0.221,0,-0.191,-0.1928,-0.1945,-0.1969,-0.1987,-0.2006,-0.203,-0.2053,-0.2085,-0.2099,-0.2087,-0.2142,-0.2156,-0.2198,-0.2209,-0.2217,-0.2213,-0.2205,-0.2248,-0.2252,-0.2256,-0.2254,-0.2258,-0.2211,-0.2211,-0.221,-0.221,0,-0.1928,-0.1947,-0.1958,-0.1991,-0.2017,-0.2041,-0.2077,-0.2103,-0.2112,-0.2131,-0.2172,-0.2192,-0.222,-0.2231,-0.2231,-0.2271,-0.2255,-0.225,-0.223,-0.2262,-0.2258,-0.2262,-0.2212,-0.2211,-0.2211,-0.2211,0,0,-0.1908,-0.1959,-0.1962,-0.1978,-0.2029,-0.205,-0.2095,-0.2138,-0.2161,-0.2191,-0.2219,-0.2262,-0.2265,-0.228,-0.2287,-0.2301,-0.2321,-0.2284,-0.2284,-0.2271,-0.2337,-0.2264,-0.2261,-0.2313,-0.2314,-0.2315,-0.2318,0,-0.1913,-0.195,-0.198,-0.2019,-0.204,-0.2081,-0.212,-0.2163,-0.2193,-0.223,-0.2257,-0.2288,-0.2285,-0.2293,-0.2311,-0.2324,-0.2333,-0.2319,-0.2319,-0.232,-0.224,-0.2264,-0.2079,-0.2061,-0.2322,-0.2323,-0.2323,0,-0.1913,-0.1938,-0.1972,-0.2026,-0.204,-0.207,-0.2127,-0.2167,-0.223,-0.2252,-0.2289,-0.2309,-0.2349,-0.2334,-0.2369,-0.2354,-0.235,-0.2353,-0.2352,-0.2287,-0.2254,-0.2076,-0.2058,-0.233,-0.2329,-0.2329,-0.2328,0,-0.1871,-0.193,-0.195,-0.197,-0.2039,-0.2061,-0.2098,-0.2166,-0.22,-0.2263,-0.2288,-0.2336,-0.2355,-0.2369,-0.238,-0.2371,-0.2405,-0.2392,-0.2324,-0.2318,-0.2164,-0.2143,-0.2415,-0.2415,-0.2415,-0.2415,-0.2415,0,-0.1854,-0.187,-0.193,-0.194,-0.1969,-0.2031,-0.207,-0.2118,-0.2188,-0.2226,-0.2288,-0.2322,-0.2363,-0.2388,-0.2389,-0.2366,-0.2411,-0.2333,-0.2318,-0.2161,-0.214,-0.238,-0.2376,-0.2415,-0.2415,-0.2415,-0.2415,0,-0.1797,-0.1838,-0.1861,-0.1926,-0.1944,-0.1961,-0.2037,-0.2067,-0.2147,-0.2199,-0.2218,-0.2309,-0.2342,-0.2373,-0.2399,-0.2366,-0.2361,-0.2341,-0.2146,-0.2108,-0.226,-0.2257,-0.2261,-0.2258,-0.2256,-0.2254,-0.2253,0,-0.1769,-0.1775,-0.1827,-0.1834,-0.1858,-0.1899,-0.1926,-0.2021,-0.206,-0.2186,-0.2202,-0.2271,-0.2297,-0.2311,-0.2273,-0.2249,-0.2319,-0.2055,-0.2012,-0.2261,-0.2247,-0.2246,-0.2246,-0.1807,-0.1802,-0.1798,-0.1795,0,-0.171,-0.1725,-0.1745,-0.1759,-0.178,-0.1803,-0.1854,-0.1883,-0.1999,-0.2053,-0.2127,-0.2164,-0.2195,-0.2093,-0.2066,-0.2025,-0.2043,-0.197,-0.2283,-0.1877,-0.1834,-0.182,-0.1834,-0.1758,-0.1762,-0.1765,-0.1767,-0.1768,-0.1657,-0.1655,-0.1675,-0.1681,-0.1699,-0.1694,-0.168,-0.1756,-0.1799,-0.1866,-0.1978,-0.1982,-0.1992,-0.1865,-0.1775,-0.1693,-0.1845,-0.1746,-0.1758,-0.1775,-0.1724,-0.168,-0.1565,-0.1568,-0.157,-0.1572,-0.1573,0,-0.1584,-0.1595,-0.1597,-0.1596,-0.1566,-0.1601,-0.162,-0.1593,-0.1607,-0.1693,-0.1739,-0.1606,-0.1542,-0.1554,-0.1377,-0.1339,-0.1316,-0.1268,-0.1237,-0.1275,-0.1308,-0.1233,-0.0944,-0.0942,-0.094,-0.0938,0,0,-0.1549,-0.1528,-0.1531,-0.1463,-0.145,-0.1371,-0.135,-0.1334,-0.1359,-0.1349,-0.1359,-0.1502,-0.1535,-0.126,-0.1179,-0.1035,-0.1142,-0.0973,-0.148,-0.1484,-0.1515,-0.1587,-0.1515,0,0,0,0,0]},{"header":{"parameterUnit":"m.s-1","parameterCategory":2,"la1":30.2991,"la2":30.254,"lo1":-89.0895,"lo2":-89.0444,"dy":0.0017,"dx":0.0017,"nx":28,"ny":28,"refTime":"2024-12-10T09:00:00:Z","depth":"2","parameterNumber":3,"parameterNumberName":"V-component_of_CURRENTS"},"data":[0,0,0,0,0,0,0,0,0,0,0,0,0,0,0,0,0,0,0,0,0,0,0,0,0,0,0,0,0,0,0,0,0,0,0,0,0,0,0,0,0,0,0,0,0,0,0,0,0,0,0,0,0,0,0,0,0,0,0.003,0.0031,0,0.0081,0.0081,0.0082,0.0122,0.0123,0.0123,0.0124,0.0172,0.0172,0.0173,0,0,0,0,0,0,0,0,0,0,0,0,0,-0.0033,-0.0032,0.003,0.0031,0.0031,0.0081,0.0081,0.0082,0.0122,0.0123,0.0123,0.0124,0.0171,0.0172,0.0173,0,0,0,0,0,0,0,0,0,0,0,0,0,0.0004,-0.0031,0.003,0.0058,0.0061,0.0081,0.0081,0.0082,0.0122,0.0123,0.0124,0.0124,0.0171,0.0172,0.0173,0.0168,0,0,0.0177,0.0178,0,0,0,0,0,0,0,0,0.0001,0.0006,0.0053,0.0056,0.0059,0.0096,0.0077,0.0111,0.0122,0.0098,0.0124,0.0124,0.0146,0.0149,0.0157,0.017,0.0172,0.0177,0.0178,0.0179,0.0179,0,0,0,0,0,0,0,-0.0001,0.0004,0.005,0.0054,0.0057,0.0068,0.0073,0.0083,0.0117,0.01,0.0104,0.011,0.0148,0.0155,0.0158,0.0173,0.0177,0.0179,0.0179,0.018,0.0177,0.0176,0,0,0,0,0,0,-0.0007,0.0001,0.0048,0.0051,0.0032,0.0068,0.0075,0.0083,0.0117,0.0123,0.0109,0.0112,0.0153,0.0157,0.016,0.0145,0.0179,0.018,0.0181,0.0178,0.0177,0.0176,0,0,0,0,0,0,-0.0009,-0.0003,0.0046,0.0028,0.0035,0.0069,0.0078,0.0084,0.0092,0.0124,0.013,0.0112,0.0154,0.0158,0.0162,0.0148,0.0181,0.0182,0.0179,0.0178,0.0176,0.0122,0,0,0,0,0,0,-0.0011,-0.0004,-0.0004,0.0027,0.0036,0.005,0.0078,0.0085,0.0095,0.0099,0.0128,0.0133,0.0154,0.016,0.0164,0.015,0.0183,0.018,0.0178,0.0177,0.0125,0.0119,0.0114,0,0,0,0,0,-0.0013,-0.0015,-0.0004,0.0001,0.0036,0.0049,0.0054,0.008,0.0095,0.0091,0.0111,0.0132,0.0153,0.016,0.0165,0.0151,0.0181,0.0179,0.0177,0.0127,0.012,0.0114,0,0,0,0,0,0,-0.0043,-0.001,0.0002,0.001,0.0025,0.0056,0.0057,0.0074,0.0088,0.0091,0.0122,0.0128,0.0127,0.0144,0.0151,0.0145,0.017,0.0169,0.0131,0.0124,0.0119,0.0113,0.0184,0,0,0,0,0,-0.005,-0.0042,-0.0014,-0.001,-0.0004,0.0025,0.0033,0.0049,0.0068,0.0075,0.0096,0.0113,0.0121,0.0127,0.0139,0.0134,0.0161,0.0127,0.0122,0.0117,0.0115,0.0142,0.0139,0.017,0.017,0.017,0,0,-0.0061,-0.0043,-0.0038,-0.0016,-0.0001,-0.0005,0.0031,0.0039,0.0033,0.0077,0.0074,0.0095,0.0116,0.0112,0.0112,0.0125,0.0122,0.0115,0.0111,0.0111,0.014,0.0137,0.0134,0.0168,0.0169,0.0169,0,0,-0.0085,-0.0064,-0.0068,-0.0062,-0.0043,-0.0028,-0.0029,-0.0002,0.0007,0.0008,0.0035,0.0048,0.0062,0.0074,0.0082,0.0052,0.0093,0.0055,0.0023,0.0049,0.0047,0.0045,0.0076,0.0078,0.0052,0.0051,0.0051,0,-0.0101,-0.0101,-0.007,-0.0078,-0.008,-0.0043,-0.0059,-0.0048,-0.0024,-0.0021,-0.0001,0.0025,0.0044,0.0039,0.003,0.004,0.0065,0.0046,0.0042,0.0041,0.0041,0.0073,0.0076,0.0049,0.0049,0.0049,0.005,0,-0.0129,-0.0134,-0.0139,-0.0137,-0.0136,-0.0143,-0.0125,-0.0122,-0.0103,-0.0085,-0.0077,-0.0044,-0.0027,-0.0022,-0.0004,-0.0005,0.0018,0.0033,0.006,0.0035,0.007,0.0074,0.0045,0.0046,0.0046,0.0047,0,0,-0.0153,-0.0158,-0.0161,-0.0179,-0.017,-0.0175,-0.0186,-0.0183,-0.019,-0.0158,-0.0161,-0.0138,-0.0105,-0.0095,-0.0067,-0.0043,-0.0025,-0.001,-0.0007,0.0022,0.0039,0.0073,0.0081,-0.0007,-0.0006,-0.0006,0.0066,0,-0.0187,-0.022,-0.0211,-0.0253,-0.0272,-0.0252,-0.0269,-0.0262,-0.0241,-0.0233,-0.0189,-0.0179,-0.0138,-0.0128,-0.01,-0.0043,-0.0017,-0.0045,0.0058,0.0061,0.0096,0.0086,0.0071,0.0135,0.007,0.0071,0.0071,0,-0.0218,-0.0239,-0.0282,-0.0317,-0.0324,-0.0342,-0.0357,-0.0365,-0.034,-0.0323,-0.029,-0.0249,-0.0212,-0.0173,-0.0083,-0.0101,-0.0039,0.0011,0.0015,0.0069,0.0102,0.015,0.0145,0.0078,0.0077,0.0077,0.0076,0,-0.0253,-0.0292,-0.033,-0.0342,-0.0369,-0.0388,-0.0398,-0.0389,-0.0402,-0.037,-0.0367,-0.0307,-0.0276,-0.0193,-0.0086,-0.0084,0.0022,0.0037,0.0127,0.0131,0.015,0.0154,0.0098,0.0098,0.0098,0.0098,0.0097,0,-0.0291,-0.0325,-0.0351,-0.0375,-0.0432,-0.0429,-0.0471,-0.047,-0.0463,-0.0483,-0.0412,-0.0404,-0.0279,-0.0201,-0.0102,0.0029,0.0012,0.0123,0.0151,0.013,0.0132,0.0107,0.0107,0.01,0.01,0.0099,0.0099,0,-0.0319,-0.0334,-0.0388,-0.0429,-0.045,-0.0486,-0.0529,-0.0557,-0.0536,-0.0556,-0.055,-0.0472,-0.0366,-0.0235,-0.0092,0.0007,0.0127,0.0175,0.0148,0.0171,0.0223,0.0219,0.0282,0.0284,0.0285,0.0287,0.0288,0,-0.0336,-0.0361,-0.043,-0.0475,-0.0497,-0.0548,-0.0592,-0.0595,-0.0619,-0.0601,-0.0614,-0.0518,-0.0455,-0.022,-0.0029,0.0158,0.0157,0.0262,0.0262,0.0221,0.0241,0.0235,0.0229,0.0266,0.0267,0.0267,0.0268,0,-0.0368,-0.0386,-0.043,-0.0526,-0.0586,-0.0652,-0.0702,-0.0732,-0.0733,-0.0742,-0.0723,-0.0668,-0.0435,-0.0223,0.004,0.0152,0.0233,0.0283,0.0247,0.0221,0.0211,0.0229,0.0223,0.0274,0.0273,0.0273,0.0272,0.0272,-0.0388,-0.0428,-0.0491,-0.058,-0.066,-0.0742,-0.079,-0.0833,-0.0873,-0.0878,-0.0805,-0.0703,-0.0469,-0.0106,0.01,0.0305,0.0287,0.035,0.0346,0.0341,0.0325,0.0319,0.0399,0.0399,0.0399,0.0399,0.0399,0,-0.041,-0.0463,-0.0549,-0.0656,-0.0748,-0.078,-0.0862,-0.0893,-0.0944,-0.092,-0.0883,-0.0631,-0.0371,-0.012,0.0205,0.0395,0.0384,0.0434,0.0382,0.0375,0.0369,0.0353,0.0435,0.0436,0.0436,0.0437,0,0,-0.0427,-0.0495,-0.0542,-0.0701,-0.0786,-0.0895,-0.094,-0.0979,-0.0967,-0.0951,-0.0867,-0.0722,-0.0396,-0.0155,0.0093,0.0273,0.0272,0.0294,0.0244,0.0146,0.0138,0.0301,0.0266,0,0,0,0,0]}],[{"header":{"parameterUnit":"m.s-1","parameterCategory":2,"la1":30.2991,"la2":30.254,"lo1":-89.0895,"lo2":-89.0444,"dy":0.0017,"dx":0.0017,"nx":28,"ny":28,"refTime":"2024-12-10T09:00:00:Z","depth":"4","parameterNumber":2,"parameterNumberName":"U-component_of_CURRENTS"},"data":[0,0,0,0,0,0,0,0,0,0,0,0,0,0,0,0,0,0,0,0,0,0,0,0,0,0,0,0,0,0,0,0,0,0,0,0,0,0,0,0,0,0,0,0,0,0,0,0,0,0,0,0,0,0,0,0,0,0,-0.1422,-0.1422,0,-0.1495,-0.1496,-0.1497,-0.1536,-0.1536,-0.1536,-0.1536,-0.1646,-0.1649,-0.1652,0,0,0,0,0,0,0,0,0,0,0,0,0,-0.134,-0.1342,-0.1422,-0.1422,-0.1423,-0.1495,-0.1496,-0.1497,-0.1536,-0.1536,-0.1536,-0.1536,-0.1645,-0.1649,-0.1652,0,0,0,0,0,0,0,0,0,0,0,0,0,-0.1391,-0.1342,-0.1421,-0.1451,-0.1454,-0.1495,-0.1496,-0.1497,-0.1536,-0.1536,-0.1536,-0.1536,-0.1644,-0.1648,-0.1653,-0.1678,0,0,-0.1666,-0.1668,0,0,0,0,0,0,0,0,-0.1388,-0.1394,-0.1446,-0.1449,-0.1453,-0.1506,-0.1508,-0.156,-0.1536,-0.1505,-0.1536,-0.1536,-0.1603,-0.161,-0.1624,-0.1683,-0.1688,-0.1666,-0.1669,-0.1671,-0.1672,0,0,0,0,0,0,0,-0.1385,-0.1391,-0.1451,-0.1447,-0.1451,-0.147,-0.1477,-0.1518,-0.1553,-0.1508,-0.1511,-0.1518,-0.1605,-0.162,-0.1627,-0.169,-0.1666,-0.167,-0.1673,-0.1675,-0.1841,-0.1843,0,0,0,0,0,0,-0.1374,-0.1388,-0.1449,-0.1453,-0.142,-0.1471,-0.1479,-0.1489,-0.1552,-0.1562,-0.1518,-0.152,-0.1612,-0.1622,-0.1631,-0.1719,-0.1671,-0.1675,-0.1677,-0.184,-0.1842,-0.1844,0,0,0,0,0,0,-0.1372,-0.1379,-0.1446,-0.1422,-0.1432,-0.1472,-0.1483,-0.1491,-0.1529,-0.156,-0.157,-0.1551,-0.1612,-0.1625,-0.1691,-0.1721,-0.1677,-0.1681,-0.1837,-0.184,-0.1843,-0.1859,0,0,0,0,0,0,-0.1369,-0.1378,-0.1396,-0.1421,-0.1433,-0.1487,-0.1484,-0.1492,-0.1532,-0.1535,-0.1591,-0.16,-0.1613,-0.1684,-0.1695,-0.1726,-0.1684,-0.1835,-0.1839,-0.1842,-0.1857,-0.1862,-0.1867,0,0,0,0,0,-0.1366,-0.1386,-0.1396,-0.1404,-0.1451,-0.1488,-0.1497,-0.1525,-0.1533,-0.1558,-0.1596,-0.16,-0.1713,-0.1689,-0.1701,-0.1735,-0.1833,-0.1838,-0.1842,-0.1854,-0.1861,-0.1867,0,0,0,0,0,0,-0.1363,-0.1392,-0.1404,-0.1433,-0.1467,-0.1495,-0.1523,-0.154,-0.1589,-0.16,-0.1625,-0.1638,-0.1707,-0.1723,-0.1696,-0.1794,-0.1774,-0.1781,-0.1779,-0.1786,-0.1791,-0.1788,-0.1688,0,0,0,0,0,-0.1369,-0.1391,-0.1422,-0.1449,-0.1467,-0.15,-0.1523,-0.1544,-0.1582,-0.1604,-0.1644,-0.1688,-0.173,-0.1759,-0.1801,-0.1857,-0.185,-0.1887,-0.1893,-0.1897,-0.1904,-0.1919,-0.1926,-0.1857,-0.1857,-0.1857,0,0,-0.1376,-0.1395,-0.1409,-0.145,-0.1478,-0.1513,-0.1515,-0.1559,-0.1596,-0.161,-0.1683,-0.1714,-0.1751,-0.1811,-0.1844,-0.183,-0.1911,-0.1902,-0.1905,-0.191,-0.1924,-0.193,-0.1936,-0.186,-0.1859,-0.1859,0,0,-0.1391,-0.1418,-0.144,-0.1471,-0.1517,-0.1539,-0.1556,-0.1604,-0.1636,-0.1701,-0.172,-0.1771,-0.1841,-0.187,-0.1892,-0.1957,-0.1941,-0.1973,-0.1996,-0.2011,-0.2016,-0.202,-0.2002,-0.2005,-0.1973,-0.1973,-0.1973,0,-0.1401,-0.1429,-0.1455,-0.1486,-0.1516,-0.1553,-0.1588,-0.1628,-0.1694,-0.1724,-0.173,-0.1834,-0.1868,-0.193,-0.1952,-0.1969,-0.196,-0.1963,-0.2015,-0.2019,-0.2024,-0.2005,-0.2007,-0.1974,-0.1974,-0.1974,-0.1973,0,-0.1423,-0.146,-0.1478,-0.1527,-0.1565,-0.1603,-0.1654,-0.1704,-0.1744,-0.1777,-0.1856,-0.1899,-0.1954,-0.1976,-0.1985,-0.204,-0.2017,-0.2017,-0.199,-0.2031,-0.2009,-0.2011,-0.1976,-0.1975,-0.1975,-0.1975,0,0,-0.1404,-0.1479,-0.1488,-0.1519,-0.159,-0.162,-0.169,-0.1753,-0.1796,-0.1862,-0.1912,-0.199,-0.2007,-0.2033,-0.2053,-0.2071,-0.209,-0.2059,-0.2059,-0.2025,-0.2096,-0.1955,-0.1944,-0.2094,-0.2095,-0.2096,-0.2061,0,-0.1416,-0.1472,-0.1512,-0.1578,-0.161,-0.1671,-0.1728,-0.1794,-0.185,-0.191,-0.1959,-0.2018,-0.2029,-0.2055,-0.2078,-0.2096,-0.2101,-0.2098,-0.2076,-0.2075,-0.1932,-0.1944,-0.2099,-0.2063,-0.2063,-0.2064,-0.2064,0,-0.1416,-0.1456,-0.1516,-0.1598,-0.162,-0.1669,-0.1759,-0.1816,-0.1904,-0.1945,-0.2006,-0.2042,-0.2098,-0.2092,-0.213,-0.2124,-0.2115,-0.2115,-0.2114,-0.1979,-0.1939,-0.2021,-0.2068,-0.2068,-0.2067,-0.2067,-0.2067,0,-0.1369,-0.1457,-0.1504,-0.1533,-0.1632,-0.1677,-0.1735,-0.1828,-0.1875,-0.1967,-0.2001,-0.2069,-0.2101,-0.2117,-0.2128,-0.213,-0.2142,-0.2141,-0.2,-0.1989,-0.2119,-0.2115,-0.2154,-0.2154,-0.2154,-0.2154,-0.2154,0,-0.1345,-0.1387,-0.149,-0.1513,-0.1574,-0.1656,-0.1726,-0.1792,-0.1881,-0.1925,-0.2011,-0.204,-0.211,-0.2127,-0.2128,-0.206,-0.214,-0.1998,-0.1973,-0.2125,-0.2123,-0.2119,-0.2115,-0.2153,-0.2153,-0.2154,-0.2154,0,-0.1279,-0.1348,-0.1406,-0.1514,-0.155,-0.1594,-0.1707,-0.1748,-0.1847,-0.1903,-0.193,-0.2023,-0.2037,-0.2076,-0.2095,-0.2036,-0.2004,-0.1959,-0.2101,-0.2086,-0.1838,-0.1836,-0.1787,-0.1782,-0.1778,-0.1774,-0.1771,0,-0.1247,-0.1271,-0.1384,-0.1412,-0.1464,-0.1544,-0.1589,-0.171,-0.175,-0.1872,-0.1879,-0.1937,-0.1979,-0.188,-0.1943,-0.1907,-0.1893,-0.1851,-0.1861,-0.1821,-0.1802,-0.1807,-0.1811,-0.1764,-0.1763,-0.1762,-0.176,0,-0.1183,-0.1233,-0.1275,-0.1319,-0.1375,-0.1438,-0.1517,-0.1533,-0.166,-0.1768,-0.1769,-0.1771,-0.1777,-0.1782,-0.1759,-0.1745,-0.1868,-0.1805,-0.1814,-0.1823,-0.1792,-0.1779,-0.1788,-0.1745,-0.1747,-0.1749,-0.175,0,-0.1133,-0.1138,-0.1181,-0.1208,-0.127,-0.1296,-0.1367,-0.1409,-0.1464,-0.1606,-0.16,-0.1669,-0.1754,-0.1697,-0.1686,-0.1647,-0.1627,-0.1572,-0.1593,-0.1611,-0.1571,-0.1507,-0.1342,0,0,0,0,0,-0.1079,-0.1057,-0.1064,-0.1086,-0.1137,-0.1173,-0.1291,-0.1369,-0.1498,-0.1449,-0.152,-0.1521,-0.1501,-0.1543,-0.1466,-0.1607,-0.1633,-0.151,-0.1582,-0.166,-0.1678,-0.1648,0,0,0,0,0,0,-0.1035,-0.1043,-0.1017,-0.0961,-0.0953,-0.1004,-0.1078,-0.1181,-0.1172,-0.1307,-0.1306,-0.1404,-0.1412,-0.1505,-0.1422,-0.1433,-0.1442,-0.1561,-0.1557,-0.165,-0.1666,-0.168,-0.1656,0,0,0,0,0]},{"header":{"parameterUnit":"m.s-1","parameterCategory":2,"la1":30.2991,"la2":30.254,"lo1":-89.0895,"lo2":-89.0444,"dy":0.0017,"dx":0.0017,"nx":28,"ny":28,"refTime":"2024-12-10T09:00:00:Z","depth":"4","parameterNumber":3,"parameterNumberName":"V-component_of_CURRENTS"},"data":[0,0,0,0,0,0,0,0,0,0,0,0,0,0,0,0,0,0,0,0,0,0,0,0,0,0,0,0,0,0,0,0,0,0,0,0,0,0,0,0,0,0,0,0,0,0,0,0,0,0,0,0,0,0,0,0,0,0,0.0063,0.0064,0,0.0104,0.0104,0.0105,0.0143,0.0143,0.0144,0.0144,0.0195,0.0196,0.0197,0,0,0,0,0,0,0,0,0,0,0,0,0,0.0023,0.0024,0.0063,0.0064,0.0064,0.0104,0.0104,0.0105,0.0143,0.0143,0.0144,0.0144,0.0195,0.0196,0.0197,0,0,0,0,0,0,0,0,0,0,0,0,0,0.005,0.0024,0.0063,0.0088,0.0091,0.0104,0.0104,0.0105,0.0143,0.0143,0.0144,0.0145,0.0195,0.0196,0.0197,0.0191,0,0,0.0202,0.0202,0,0,0,0,0,0,0,0,0.0048,0.0051,0.0084,0.0086,0.0089,0.0119,0.0109,0.0134,0.0142,0.0123,0.0144,0.0145,0.017,0.0174,0.018,0.0194,0.0196,0.0202,0.0203,0.0203,0.0203,0,0,0,0,0,0,0,0.0046,0.005,0.0079,0.0084,0.0088,0.0099,0.0103,0.0114,0.0142,0.0124,0.0127,0.0132,0.0172,0.0178,0.0181,0.0197,0.0202,0.0203,0.0204,0.0204,0.0208,0.0207,0,0,0,0,0,0,0.004,0.0048,0.0078,0.008,0.007,0.0099,0.0104,0.0109,0.0142,0.0148,0.0131,0.0133,0.0175,0.0179,0.0183,0.0173,0.0203,0.0204,0.0205,0.0209,0.0208,0.0207,0,0,0,0,0,0,0.0039,0.0043,0.0076,0.0065,0.007,0.0099,0.0104,0.0109,0.0119,0.0147,0.0153,0.0136,0.0176,0.0181,0.0189,0.0175,0.0205,0.0206,0.021,0.0208,0.0207,0.0156,0,0,0,0,0,0,0.0038,0.0042,0.0042,0.0065,0.0071,0.0079,0.0103,0.0109,0.012,0.0123,0.0152,0.0158,0.0177,0.0187,0.019,0.0178,0.0207,0.021,0.0209,0.0208,0.0158,0.0153,0.0148,0,0,0,0,0,0.0036,0.0033,0.0042,0.0045,0.007,0.0079,0.0082,0.0105,0.0119,0.0117,0.0137,0.0157,0.0181,0.0187,0.0192,0.0179,0.0211,0.0209,0.0208,0.016,0.0154,0.0148,0,0,0,0,0,0,0.0016,0.0037,0.0047,0.0051,0.0061,0.0085,0.0086,0.0102,0.0116,0.012,0.0149,0.0155,0.0157,0.0173,0.018,0.0176,0.0199,0.0198,0.0161,0.0155,0.015,0.0144,0.0208,0,0,0,0,0,0.001,0.0013,0.0033,0.0035,0.0039,0.0062,0.0068,0.0082,0.0099,0.0106,0.0127,0.0144,0.0152,0.0159,0.0171,0.0168,0.0187,0.0162,0.0157,0.0153,0.015,0.0164,0.016,0.0202,0.0202,0.0202,0,0,0.0002,0.0014,0.0016,0.003,0.0042,0.0037,0.0067,0.0074,0.0068,0.0109,0.0108,0.0129,0.0148,0.0145,0.0147,0.0158,0.015,0.0151,0.0147,0.0147,0.0162,0.0158,0.0155,0.0201,0.0201,0.0201,0,0,-0.0016,-0.0002,-0.0007,-0.0003,0.001,0.0021,0.002,0.0041,0.0048,0.0051,0.0076,0.0087,0.0103,0.0112,0.0118,0.0092,0.0124,0.0097,0.0066,0.0079,0.0076,0.0073,0.009,0.0089,0.0093,0.0093,0.0093,0,-0.0027,-0.003,-0.0009,-0.0017,-0.002,0.0009,-0.0005,0.0003,0.0023,0.0024,0.0044,0.0066,0.0085,0.0078,0.0071,0.0081,0.0097,0.0087,0.0073,0.0071,0.0069,0.0087,0.0087,0.009,0.0091,0.0091,0.0091,0,-0.0049,-0.0056,-0.0061,-0.0063,-0.0064,-0.0071,-0.006,-0.0059,-0.0043,-0.003,-0.0025,0.0003,0.0017,0.0022,0.004,0.0032,0.0051,0.0066,0.0088,0.0061,0.0082,0.0083,0.0086,0.0087,0.0088,0.0089,0,0,-0.0065,-0.0075,-0.0078,-0.0094,-0.009,-0.0097,-0.0109,-0.0113,-0.0122,-0.0096,-0.0103,-0.0083,-0.0056,-0.0047,-0.0022,-0.0009,-0.0006,0.0021,0.0023,0.0037,0.0027,0.0042,0.0045,0.0009,0.0009,0.0009,0.0046,0,-0.0091,-0.012,-0.0117,-0.0154,-0.017,-0.0161,-0.0179,-0.0178,-0.0165,-0.0164,-0.0131,-0.0124,-0.0087,-0.0078,-0.0061,-0.0018,-0.0005,-0.0017,0.0051,0.0053,0.0069,0.0046,0.0008,0.0047,0.0047,0.0047,0.0047,0,-0.0113,-0.0132,-0.017,-0.0207,-0.0214,-0.0233,-0.0256,-0.0266,-0.0256,-0.0244,-0.0222,-0.0189,-0.0166,-0.0129,-0.007,-0.0077,-0.0032,0.0004,0.0007,0.004,0.007,0.008,0.0049,0.0049,0.0049,0.0049,0.0049,0,-0.0134,-0.0172,-0.0206,-0.0217,-0.0249,-0.0271,-0.0286,-0.0288,-0.0305,-0.0288,-0.0289,-0.0248,-0.0227,-0.0168,-0.0084,-0.0078,-0.0012,0.0004,0.0059,0.0061,0.006,0.0063,0.0039,0.0039,0.0039,0.0039,0.0039,0,-0.0158,-0.0189,-0.0221,-0.0241,-0.0296,-0.0302,-0.0348,-0.0353,-0.0359,-0.0382,-0.0329,-0.0328,-0.0235,-0.0181,-0.0104,-0.0018,-0.0027,0.0049,0.0068,0.0037,0.0037,0.0061,0.0063,0.0041,0.004,0.004,0.004,0,-0.0169,-0.0189,-0.0236,-0.0282,-0.0307,-0.034,-0.0395,-0.0425,-0.0419,-0.0444,-0.0441,-0.0388,-0.0314,-0.0217,-0.0116,-0.0048,0.0035,0.0068,0.0028,0.0045,0.0104,0.0103,0.0125,0.0126,0.0126,0.0127,0.0127,0,-0.0177,-0.0198,-0.0266,-0.0305,-0.033,-0.0385,-0.0431,-0.0453,-0.0478,-0.048,-0.0493,-0.0431,-0.0383,-0.0231,-0.0121,0.0024,0.0049,0.0094,0.0098,0.0095,0.0111,0.0109,0.0107,0.0129,0.0129,0.0129,0.0129,0,-0.0188,-0.0208,-0.024,-0.0313,-0.0374,-0.0455,-0.0511,-0.0539,-0.056,-0.0561,-0.0537,-0.0454,-0.0368,-0.0237,-0.012,-0.0015,0.0065,0.0101,0.01,0.0105,0.01,0.0115,0.0112,0.0131,0.0131,0.0131,0.0131,0,-0.019,-0.0209,-0.0243,-0.0303,-0.0391,-0.0486,-0.0533,-0.0567,-0.0593,-0.059,-0.0581,-0.0483,-0.0424,-0.0257,-0.0151,-0.0043,-0.0014,0.0024,0.0027,0.0026,-0.0006,-0.0027,-0.0024,0,0,0,0,0,-0.0192,-0.0193,-0.0239,-0.0309,-0.04,-0.0454,-0.0563,-0.0601,-0.0627,-0.062,-0.06,-0.0518,-0.0356,-0.0282,-0.0173,-0.0133,0.0008,0.0,0.0055,0.0144,0.0141,0.0123,0,0,0,0,0,0,-0.0188,-0.0214,-0.0212,-0.0289,-0.0344,-0.0454,-0.0532,-0.0575,-0.0568,-0.0577,-0.0496,-0.0459,-0.0303,-0.0397,-0.015,-0.0119,-0.0066,0.0076,0.0078,0.0145,0.0143,0.0141,0.0121,0,0,0,0,0]}]]